Location: Petruro
(41.0333°N, 14.7833°E)
Time: 09:24:58
(UTC+00:00)

ERBS - Visible Passes

Search period start: 28 October 2021 00:00
Search period end: 07 November 2021 00:00
Orbit: 400 x 405 km, 57.0° (Epoch: 27 October)

Date Brightness Start Highest point End Pass type
(mag) Time Alt. Az. Time Alt. Az. Time Alt. Az.
28 Oct 4.7 03:09:08 20° NE 03:09:08 20° NE 03:10:17 10° NE visible
28 Oct 4.2 04:41:48 12° WNW 04:43:21 15° NNW 04:45:21 10° N visible
29 Oct 3.9 03:51:44 21° N 03:51:44 21° N 03:53:32 10° NNE visible
31 Oct 4.9 03:43:52 11° N 03:43:52 11° N 03:44:08 10° N visible
